User: anonymous   Login
Location: Brachbach
(49.1847°N, 9.7240°E)
Time: 03:26:47
(UTC+00:00)
Language:

Cosmos 2322 Rocket - Orbit

View from above orbital plane
View from above orbital plane
View from above satellite
View from above satellite

Ground track
Ground track

The orbit data is extracted from the following two-line orbital elements,

1 23705U 95058B   24200.55700625  .00000273  00000-0  16456-3 0  9999
2 23705  71.0223 358.0051 0014153 307.1313  52.8516 14.15349949483076
Epoch (UTC): 18 July 2024 13:22:05
Eccentricity: 0.0014153
inclination: 71.0223°
perigee height: 831 km
apogee height: 851 km
right ascension of ascending node: 358.0051°
argument of perigee: 307.1313°
revolutions per day: 14.15349949
mean anomaly at epoch: 52.8516°
orbit number at epoch: 48307

The dashed part of the orbit path shows where the satellite is in the earth's shadow,  

DLR